Regional Weather Roundup
Issued by NWS

Home | Current Version | Previous Version | Graphics & Text | Print | Product List | Glossary Off
Versions: 1 2 3 4 5 6 7 8 9 10 11 12 13 14 15 16 17 18 19 20 21 22 23 24 25 26 27 28 29 30 31 32 33 34 35 36 37 38 39 40 41 42 43 44 45 46 47 48 49 50

000
ASUS43 KTOP 202208
RWRKS

WEATHER ROUNDUP FOR KANSAS
NATIONAL WEATHER SERVICE GOODLAND KS
500 PM CDT WED AUG 20 2014

NOTE:  "FAIR" INDICATES FEW OR NO CLOUDS BELOW 12,000 FEET WITH NO
SIGNIFICANT WEATHER AND/OR OBSTRUCTIONS TO VISIBILITY.

KSZ001>006-013>018-027>032-041>047-202300-
NORTHWEST KANSAS

CITY           SKY/WX    TMP DP  RH WIND       PRES   REMARKS
GOODLAND       PTSUNNY   95  54  25 MISG      29.78F
HAYS           PTSUNNY   97  64  34 S23G29    29.74S HX  99
HILL CITY      MOSUNNY   99  61  28 S20       29.72F HX  99
RUSSELL        PTSUNNY   94  65  38 S20G33    29.74S HX  96
$$

KSZ061>065-074>080-084>089-202300-
SOUTHWEST KANSAS

CITY           SKY/WX    TMP DP  RH WIND       PRES   REMARKS
DODGE CITY     SUNNY     97  60  29 S22G36    29.79F HX  97
GARDEN CITY    MOSUNNY   98  53  22 S17       29.77F HX  96
GREAT BEND     PTSUNNY   99  64  32 S25G32    29.76S HX 101
LIBERAL        MOSUNNY   99  57  25 S23G33    29.81S HX  97
PRATT          MOSUNNY   97  57  26 S24G31    29.80F HX  95
$$

KSZ066>073-081>083-090>101-202300-
SOUTHEAST KANSAS

CITY           SKY/WX    TMP DP  RH WIND       PRES   REMARKS
CHANUTE        SUNNY     93  69  45 S18G28    29.87F HX  98
COFFEYVILLE    SUNNY     93  65  39 S17G24    29.88S HX  95
HUTCHINSON     SUNNY     98  64  32 S24G30    29.79S HX 100
MEDICINE LODGE   N/A     99  63  30 S21G28    29.77F HX 101
NEWTON         MOSUNNY   93  66  40 S26G32    29.85S HX  96
PARSONS        SUNNY     93  62  35 S14G21    29.89F
WICHITA INTL   MOSUNNY   94  67  41 S25G36    29.80F HX  97
WICHITA JABRA  SUNNY     92  69  47 S22G33    29.82F HX  97
WICHITA MCCONL SUNNY     92  69  45 SE25G31   29.82F HX  97
WINFIELD       SUNNY     94  66  39 S17G26    29.85F HX  97
$$

KSZ007>012-019>026-033>040-048>060-102>105-202300-
NORTHEAST KANSAS

CITY           SKY/WX    TMP DP  RH WIND       PRES   REMARKS
CONCORDIA      SUNNY     92  70  48 S20G28    29.76F HX  97
EMPORIA        SUNNY     94  68  42 S20G28    29.83S HX  98
LAWRENCE       MOSUNNY   97  71  42 S14       29.82S HX 104
MANHATTAN      MOSUNNY   97  68  38 S17G24    29.77S HX 102
MARYSVILLE     MOSUNNY   93  70  46 S16G24    29.77F HX  99
OLATHE IND     PTSUNNY   94  68  42 S17G26    29.85F HX  98
OLATHE EXE     MOSUNNY   91  70  49 S14G24    29.85F HX  96
SALINA         SUNNY     97  68  38 S20G30    29.76F HX 102
TOPEKA BILLARD MOSUNNY   96  69  41 S12G20    29.80F HX 102
TOPEKA FORBES  SUNNY     96  67  38 S22       29.81F HX 100
$$


USA.gov is the U.S. government's official web portal to all federal, state and local government web resources and services.